GFSNE_850_spd_336.txt.gz
Wind_Speed
5 6 4 5 7 6 5 5 6 8 5 6 8 11 9 11 11 10 14 14 14 15 15 15 15 14 14 13 12 9 9 10 11 10 10 11 11 12
3 3 2 3 4 5 7 6 4 4 5 7 8 9 10 10 12 10 16 18 17 17 17 16 15 14 14 14 12 11 10 8 8 10 10 11 12 12
4 6 6 6 6 7 6 7 8 7 5 5 9 12 11 11 10 10 10 10 15 17 16 16 15 15 15 15 15 14 13 12 11 10 10 9 10 11
7 7 7 7 10 10 9 10 9 9 6 6 7 9 12 12 12 11 9 9 9 18 18 17 16 15 16 16 15 15 15 15 14 13 12 11 11 10
9 9 9 9 10 10 10 10 10 10 10 8 9 9 10 11 12 11 11 9 10 15 18 20 20 20 18 17 16 15 14 14 14 14 13 12 11 11
9 8 8 8 10 11 11 12 12 10 11 10 9 10 10 13 12 13 13 10 12 10 11 15 15 16 20 18 18 19 19 18 17 15 14 14 13 12
9 10 11 13 13 12 10 12 12 10 9 9 9 10 12 13 15 13 12 11 10 13 10 11 11 10 11 14 17 18 18 19 18 16 15 14 13 14
9 9 11 12 13 13 14 12 13 10 10 10 9 10 11 11 13 11 12 12 12 14 14 10 12 11 11 8 15 18 18 20 20 18 15 13 13 14
10 10 7 7 9 9 11 11 10 10 10 10 9 10 9 11 11 11 12 11 11 12 14 11 12 11 11 12 18 20 21 17 17 15 14 13 14 14
11 10 9 8 7 7 6 7 8 9 8 8 8 8 10 12 13 12 13 14 10 11 14 16 13 15 13 12 13 19 24 20 17 16 15 15 16 15
11 10 9 9 8 7 6 6 7 8 11 10 11 11 12 12 13 10 12 12 13 13 11 16 15 16 14 10 13 20 21 17 21 20 20 18 16 16
8 10 9 7 8 8 7 7 6 7 7 7 9 11 11 14 19 14 13 13 13 13 16 16 14 15 17 10 16 13 14 18 18 20 21 22 21 14
6 6 5 6 9 9 8 7 7 7 9 7 7 8 9 10 11 11 13 12 11 9 14 13 14 15 14 16 14 16 15 19 16 16 18 21 23 20
7 5 4 6 8 9 8 9 9 11 6 6 7 8 10 10 10 11 12 12 8 11 10 13 12 14 16 18 17 16 18 15 16 17 19 19 17 20
7 7 2 4 9 9 8 8 9 6 7 7 8 9 10 10 10 11 10 12 10 11 11 12 12 15 14 17 19 16 16 17 15 19 20 21 18 17
7 4 3 3 4 3 8 6 4 4 5 7 8 9 10 10 10 11 11 12 11 11 12 11 12 14 14 15 16 16 16 19 19 19 21 20 18 18
10 6 3 2 0 1 2 3 3 3 4 6 7 9 10 10 10 11 12 12 12 13 14 13 15 15 15 14 15 17 17 20 19 21 22 22 22 21
9 6 4 3 1 1 2 4 5 5 4 4 6 9 9 9 11 10 11 11 13 14 15 15 17 18 18 17 13 17 20 20 22 24 25 25 26 23
14 11 8 5 4 1 1 3 4 5 6 5 6 8 8 9 11 11 12 12 12 14 14 15 17 18 21 20 16 20 20 19 23 24 24 25 26 25
14 11 10 8 5 4 3 3 4 5 5 4 6 8 8 9 9 10 10 11 13 13 15 15 16 16 19 18 23 24 18 19 20 24 24 23 23 23
14 12 11 10 8 6 6 5 5 4 5 4 5 7 7 7 8 9 10 13 15 15 16 16 17 19 16 17 20 22 23 20 22 23 24 21 22 26
16 16 15 13 12 11 9 7 6 6 5 5 6 7 8 7 8 9 10 12 14 16 17 16 17 15 16 15 19 21 22 21 18 22 23 26 23 25
21 21 20 19 18 16 14 11 9 7 7 5 5 6 7 6 7 8 10 11 13 16 17 18 17 16 16 16 18 19 19 20 25 26 24 22 27 27

GFSNE_850_spd_339.txt.gz
Wind_Speed
5 4 5 3 5 5 5 5 4 5 9 11 9 10 9 10 9 6 19 18 18 16 16 15 15 14 14 14 13 13 13 12 10 10 11 12 12 12
4 6 7 4 5 5 6 7 5 3 3 5 10 7 8 8 12 8 14 13 20 20 18 17 17 17 17 17 16 15 14 13 12 11 10 10 10 10
8 8 8 7 7 7 6 6 6 4 5 7 7 10 9 9 9 8 9 12 15 24 21 20 19 18 16 16 16 16 16 15 14 13 13 12 10 9
8 9 9 8 9 12 8 10 10 8 7 6 6 8 11 10 10 10 7 6 10 17 20 21 21 21 19 17 17 17 17 17 17 16 15 15 14 13
9 10 10 9 10 9 9 9 9 8 8 7 8 8 10 11 11 9 9 9 9 13 14 17 18 17 20 17 19 19 19 19 19 18 18 17 16 15
8 8 8 8 10 11 11 12 12 8 10 9 8 9 9 11 9 10 8 8 7 7 7 11 17 10 10 12 22 21 21 21 21 19 18 17 16 16
9 9 12 13 11 10 10 10 11 10 8 7 7 7 8 9 10 9 8 8 5 12 10 6 12 13 4 12 18 21 24 22 20 17 15 15 14 15
8 10 11 10 10 10 11 10 10 9 8 8 5 7 8 8 9 9 10 9 8 11 12 9 9 8 12 12 15 19 22 25 17 15 16 16 15 15
8 8 6 7 9 8 12 12 8 8 11 7 7 7 7 9 8 10 12 9 8 8 9 12 9 10 12 12 14 21 21 19 20 20 17 16 17 17
8 7 7 4 6 6 4 4 6 7 6 6 7 8 9 11 8 10 9 12 6 6 9 14 11 13 13 13 16 14 17 15 20 21 24 24 24 19
9 9 6 5 4 3 4 3 4 5 9 11 14 16 15 19 17 8 10 10 9 8 14 12 12 14 14 12 11 11 15 19 20 20 22 20 26 21
7 9 6 3 4 3 4 2 2 4 4 7 11 11 13 14 16 12 10 10 10 8 16 11 13 15 15 11 10 11 15 20 17 17 17 21 26 19
5 5 2 2 3 3 3 3 3 6 4 6 4 5 6 6 7 9 10 8 7 7 13 13 13 15 13 15 14 15 16 18 15 17 22 20 26 21
7 8 2 1 3 4 5 5 9 9 5 3 4 5 6 6 6 9 10 14 8 12 6 21 13 15 13 16 17 19 18 16 17 17 19 20 23 23
9 9 2 1 6 5 6 6 9 5 3 4 5 5 6 6 7 8 7 10 11 10 9 15 13 18 13 15 18 19 18 20 18 20 17 20 25 27
14 10 5 4 4 4 3 6 1 2 2 3 4 6 6 6 6 7 8 9 9 8 10 11 11 16 14 17 18 19 14 18 17 20 22 23 22 20
11 10 7 3 4 3 3 2 1 2 2 3 3 6 7 6 7 8 8 10 10 11 12 11 13 17 15 17 14 14 19 19 17 20 26 26 23 23
14 12 10 9 7 7 6 4 3 3 4 2 3 5 6 7 8 8 8 9 10 11 13 13 15 16 16 18 12 13 17 23 22 21 22 22 24 25
18 14 12 12 11 10 9 7 5 6 7 1 3 5 6 6 8 8 8 8 10 13 11 14 15 16 17 18 16 16 20 21 20 21 20 22 25 24
20 16 16 16 14 12 10 8 7 5 2 3 4 5 6 6 6 7 8 9 11 12 13 13 14 14 16 16 19 18 19 21 19 21 20 24 23 23
24 20 19 18 16 15 13 12 11 6 7 7 5 5 5 5 5 6 8 11 13 13 15 16 15 18 15 10 19 19 18 19 19 19 26 23 26 27
22 22 20 18 19 18 16 14 10 9 6 3 5 6 5 5 4 5 7 9 11 13 15 16 17 15 14 14 15 19 21 17 18 29 20 24 23 28
26 25 21 22 22 20 19 15 13 11 10 9 7 6 6 5 5 4 6 8 11 13 14 16 15 14 15 14 15 19 22 22 23 24 25 22 25 28

GFSNE_850_spd_342.txt.gz
Wind_Speed
5 4 7 9 8 10 11 9 3 1 8 7 6 9 6 10 11 9 14 16 20 19 15 15 15 15 14 14 14 14 14 12 11 10 10 10 10 9
4 6 4 10 7 5 8 6 4 7 7 7 7 10 3 8 7 9 9 12 19 24 22 20 19 19 17 16 16 17 17 17 16 15 14 13 11 10
5 7 8 7 8 5 5 6 3 8 14 9 9 11 11 8 10 10 8 7 18 19 20 24 23 24 24 19 19 19 19 19 19 18 17 16 15 13
6 6 6 9 11 11 11 9 11 11 6 7 10 10 7 8 10 7 9 10 11 15 13 17 21 20 19 22 28 27 24 21 20 19 18 18 18 16
7 6 7 6 9 6 10 11 11 10 11 7 8 8 10 6 9 9 6 6 10 13 14 12 17 16 10 16 23 27 29 28 22 18 16 16 17 17
4 4 6 8 9 8 11 13 10 11 8 6 5 4 8 7 7 10 4 9 4 9 9 11 11 17 9 9 19 23 22 25 24 19 17 16 16 15
9 10 10 10 8 6 7 11 11 11 11 9 7 1 2 5 6 10 5 7 4 14 6 18 11 15 6 12 21 22 21 21 22 24 18 17 16 15
11 10 10 10 9 8 8 6 5 5 7 7 4 3 3 6 5 8 10 8 9 12 11 8 9 14 7 14 17 14 15 16 19 21 22 20 21 17
12 8 7 4 6 9 11 8 7 7 6 3 4 5 8 8 7 6 7 10 9 4 11 16 9 11 14 14 10 11 13 16 19 19 20 23 27 21
11 12 12 3 6 7 4 4 6 7 6 10 12 10 11 9 4 6 5 12 2 5 12 12 10 9 12 16 9 9 13 21 22 18 18 19 27 25
8 8 5 4 4 4 4 2 3 5 8 12 13 15 14 15 13 7 6 8 7 10 13 4 10 12 12 14 10 10 16 20 18 21 18 18 24 22
7 6 3 1 1 3 4 4 1 10 6 8 9 9 12 12 13 15 7 7 4 5 13 12 10 14 12 5 5 11 14 18 17 15 15 15 22 22
3 6 2 1 0 2 2 2 3 4 6 6 3 4 6 8 9 14 10 12 11 9 10 21 20 19 5 11 10 19 22 21 17 17 17 19 21 24
8 9 2 2 0 2 2 6 9 6 5 4 3 4 3 5 8 10 13 14 14 12 13 16 19 20 12 14 15 17 21 17 17 14 18 24 26 21
14 14 11 5 4 4 5 6 5 3 2 2 4 3 5 7 8 8 6 10 10 9 11 15 18 19 16 12 16 18 15 18 15 20 21 27 22 22
16 16 11 6 3 4 4 1 0 4 5 3 3 3 4 4 6 11 6 8 8 8 8 13 14 18 20 19 15 11 12 12 16 20 25 26 22 19
17 17 14 10 5 2 2 2 5 7 3 6 1 3 4 3 7 9 6 7 8 10 11 10 14 16 17 14 13 15 18 19 24 21 22 20 24 23
18 15 13 9 5 8 9 10 9 9 10 10 3 5 4 6 9 4 7 7 9 11 13 9 15 15 13 15 16 21 19 20 20 19 20 24 24 24
23 21 16 12 14 14 15 12 9 12 14 13 5 7 7 6 6 5 6 7 9 12 7 12 14 13 16 17 17 15 18 17 20 23 24 31 22 24
28 25 22 20 20 17 17 15 15 17 16 7 7 7 10 6 3 6 6 9 10 10 12 12 14 17 21 19 17 15 18 20 21 24 26 29 22 25
31 29 25 23 23 21 21 17 18 19 14 11 11 11 11 8 6 6 7 8 9 10 12 13 14 17 15 19 16 18 15 19 20 22 27 27 27 30
33 32 29 27 26 25 25 22 23 22 18 16 14 12 10 10 8 7 5 8 7 10 11 14 15 15 14 16 16 13 15 23 23 22 28 22 28 27
35 31 31 32 31 30 31 30 29 25 20 14 13 16 11 11 9 8 7 6 8 8 10 16 15 14 14 17 14 17 18 18 23 27 29 25 19 23

GFSNE_850_spd_345.txt.gz
Wind_Speed
4 5 6 8 7 3 8 5 5 6 12 4 8 6 4 8 10 10 12 20 23 24 24 23 23 20 22 20 19 17 17 16 16 15 15 13 11 11
4 11 9 8 5 5 7 3 7 7 10 8 10 5 2 7 7 6 8 16 19 20 24 24 25 25 27 29 28 25 21 19 17 16 15 16 15 14
6 9 12 7 5 6 4 2 4 7 14 12 11 12 14 10 8 9 5 10 14 15 16 20 20 20 22 25 28 30 30 24 19 17 15 15 16 16
6 7 8 6 6 7 6 12 13 8 5 13 12 10 8 4 3 7 8 10 13 15 13 12 14 14 17 20 23 27 29 31 25 20 17 15 15 15
6 7 8 7 10 6 8 12 15 11 7 7 12 9 6 5 9 10 8 7 11 15 13 10 12 11 12 13 18 23 25 27 29 27 20 18 16 15
5 6 8 8 6 7 8 14 14 11 13 13 9 3 1 2 4 4 5 6 8 11 13 10 9 10 9 11 16 19 22 24 23 29 24 22 19 15
9 10 10 9 6 7 9 10 10 10 12 9 5 2 3 1 3 4 5 7 4 10 12 12 12 6 4 7 11 16 20 21 22 21 19 23 23 17
10 11 11 9 8 7 7 6 8 8 7 4 4 3 4 5 5 8 10 3 6 5 8 13 15 6 5 7 8 11 16 21 21 18 19 22 26 15
10 8 8 5 6 6 6 5 5 5 3 1 3 6 6 5 4 4 6 7 2 3 8 7 4 11 8 8 6 12 17 20 17 17 15 17 23 16
6 6 4 3 2 2 4 5 6 8 9 10 11 10 10 9 3 2 5 7 3 6 11 8 8 4 10 8 6 9 12 16 15 16 11 15 18 18
8 9 8 5 6 5 3 1 5 7 11 12 11 12 11 10 10 4 6 6 4 8 14 11 13 7 2 10 4 7 14 11 10 11 13 17 21 20
8 8 7 4 4 5 4 3 6 9 9 5 5 7 7 9 9 11 7 5 5 5 12 16 22 15 8 10 3 9 13 18 18 19 16 18 23 27
6 5 3 2 3 4 5 5 6 8 5 2 7 4 3 6 10 9 6 6 8 9 9 13 14 16 7 7 7 9 17 19 16 15 15 21 24 19
7 5 2 2 3 5 5 8 11 8 6 6 6 3 8 4 6 4 6 6 6 11 5 8 10 13 14 10 12 12 15 12 11 15 20 22 20 20
11 7 8 7 5 6 7 10 9 9 6 5 8 9 6 2 4 5 9 7 5 7 7 7 11 13 16 18 17 11 10 10 15 21 18 22 20 21
14 13 12 10 8 10 8 10 7 4 9 10 9 6 4 5 6 8 9 2 3 5 6 7 7 10 12 6 6 9 15 15 15 21 18 21 23 19
20 19 18 16 14 10 9 7 3 3 7 9 7 7 6 7 8 9 5 3 4 6 10 9 7 8 1 10 14 16 18 13 16 19 23 24 26 17
27 27 23 21 18 16 14 11 8 7 11 9 10 11 8 8 8 6 4 4 7 9 12 3 7 8 11 15 15 12 15 14 15 19 23 24 26 23
33 31 26 21 21 17 15 18 14 13 15 13 13 13 11 9 10 9 6 6 8 10 2 5 8 11 14 18 13 11 13 13 18 22 22 22 28 28
36 34 31 26 23 21 19 20 21 19 20 17 16 15 12 12 10 8 6 8 9 7 6 7 9 12 15 14 18 15 10 11 17 21 22 26 25 25
37 36 33 29 28 25 25 25 27 24 21 22 18 13 12 14 13 8 8 10 9 7 7 10 11 14 11 12 16 19 9 10 15 17 19 25 27 28
37 37 35 32 32 30 28 29 30 30 26 25 21 16 16 18 16 13 14 12 10 6 9 10 16 8 9 12 18 11 7 8 15 22 21 19 21 25
42 41 37 36 36 36 34 35 34 35 33 26 25 17 17 17 14 12 12 11 8 8 10 10 14 9 14 13 13 13 9 14 20 22 23 18 17 23